| time (UTC) | temp F | wind direction | speed MPH | gust MPH | rain 1hr in | rain 24hr in | rain mn in | humidity % | barometer mb |
| 20260507074046 | 51 | 0 | 0.0 | 0.0 | 0.00 | 0.06 | 0.00 | 81 | 1017.2 |
| 20260507073045 | 51 | 0 | 0.0 | 0.0 | 0.00 | 0.06 | 0.00 | 81 | 1017.2 |
| 20260507072047 | 50 | 0 | 0.0 | 0.0 | 0.00 | 0.06 | 0.00 | 82 | 1017.1 |
| 20260507071045 | 50 | 0 | 0.0 | 0.0 | 0.00 | 0.06 | 0.00 | 82 | 1017.1 |
| 20260507070044 | 50 | 0 | 0.0 | 0.0 | 0.00 | 0.06 | 0.00 | 84 | 1017.1 |
| 20260507064045 | 49 | 0 | 0.0 | 0.0 | 0.00 | 0.08 | 0.00 | 87 | 1017.0 |
| 20260507063040 | 49 | 0 | 0.0 | 0.0 | 0.00 | 0.09 | 0.00 | 87 | 1016.9 |
| 20260507061046 | 48 | 0 | 0.0 | 0.0 | 0.00 | 0.09 | 0.00 | 91 | 1016.7 |
| 20260507055041 | 47 | 0 | 0.0 | 0.0 | 0.00 | 0.09 | 0.00 | 95 | 1016.6 |
| 20260507054045 | 47 | 0 | 0.0 | 0.0 | 0.00 | 0.09 | 0.00 | 95 | 1016.5 |
| 20260507052046 | 47 | 0 | 0.0 | 0.0 | 0.00 | 0.11 | 0.00 | 96 | 1016.3 |
| 20260507051045 | 46 | 0 | 0.0 | 0.0 | 0.00 | 0.13 | 0.00 | 96 | 1016.3 |
| 20260507050046 | 46 | 0 | 0.0 | 0.0 | 0.00 | 0.13 | 0.00 | 96 | 1016.2 |
| 20260507045045 | 46 | 0 | 0.0 | 0.0 | 0.00 | 0.16 | 0.00 | 96 | 1016.1 |
| 20260507044045 | 46 | 0 | 0.0 | 0.0 | 0.00 | 0.16 | 0.00 | 96 | 1016.0 |
| 20260507043046 | 46 | 0 | 0.0 | 0.0 | 0.00 | 0.16 | 0.00 | 96 | 1015.9 |
| 20260507042044 | 46 | 0 | 0.0 | 0.0 | 0.00 | 0.16 | 0.00 | 96 | 1015.8 |
| 20260507041043 | 46 | 0 | 0.0 | 0.0 | 0.00 | 0.16 | 0.00 | 95 | 1015.7 |
| 20260507040046 | 46 | 0 | 0.0 | 0.0 | 0.00 | 0.17 | 0.00 | 95 | 1015.6 |
| 20260507035047 | 46 | 0 | 0.0 | 0.0 | 0.00 | 0.17 | 0.00 | 95 | 1015.5 |
| 20260507032047 | 46 | 0 | 0.0 | 0.0 | 0.00 | 0.18 | 0.00 | 94 | 1015.4 |
| 20260507031044 | 46 | 0 | 0.0 | 0.0 | 0.00 | 0.20 | 0.00 | 93 | 1015.4 |
| 20260507030045 | 46 | 0 | 0.0 | 0.0 | 0.00 | 0.20 | 0.00 | 93 | 1015.4 |
| 20260507024041 | 46 | 0 | 0.0 | 0.0 | 0.00 | 0.22 | 0.00 | 94 | 1015.3 |
| 20260507022046 | 46 | 0 | 0.0 | 0.0 | 0.00 | 0.24 | 0.00 | 94 | 1015.1 |
| 20260507021046 | 46 | 0 | 0.0 | 0.0 | 0.00 | 0.24 | 0.00 | 94 | 1015.0 |
| 20260507020046 | 46 | 0 | 0.0 | 0.0 | 0.00 | 0.26 | 0.00 | 93 | 1015.0 |
| 20260507015042 | 46 | 0 | 0.0 | 0.0 | 0.00 | 0.26 | 0.00 | 93 | 1015.0 |
| 20260507014047 | 46 | 0 | 0.0 | 0.0 | 0.00 | 0.28 | 0.00 | 93 | 1015.1 |
| 20260507013044 | 46 | 0 | 0.0 | 0.0 | 0.00 | 0.28 | 0.00 | 93 | 1015.1 |
| 20260507010045 | 47 | 0 | 0.0 | 0.0 | 0.00 | 0.31 | 0.00 | 93 | 1015.0 |
| 20260507005042 | 47 | 0 | 0.0 | 0.0 | 0.00 | 0.32 | 0.00 | 93 | 1015.0 |
| 20260507003042 | 46 | 0 | 0.0 | 0.0 | 0.00 | 0.34 | 0.00 | 93 | 1014.9 |
| 20260507001044 | 47 | 0 | 0.0 | 0.0 | 0.00 | 0.35 | 0.00 | 94 | 1014.9 |
| 20260507000050 | 46 | 0 | 0.0 | 0.0 | 0.00 | 0.37 | 0.00 | 95 | 1014.8 |
| 20260506235046 | 46 | 0 | 0.0 | 0.0 | 0.00 | 0.39 | 0.00 | 96 | 1014.8 |
| 20260506233045 | 46 | 0 | 0.0 | 0.0 | 0.00 | 0.41 | 0.00 | 97 | 1014.6 |
| 20260506232045 | 46 | 0 | 0.0 | 0.0 | 0.00 | 0.43 | 0.00 | 97 | 1014.6 |
| 20260506231049 | 46 | 0 | 0.0 | 0.0 | 0.00 | 0.45 | 0.00 | 97 | 1014.5 |
| 20260506230049 | 46 | 0 | 0.0 | 0.0 | 0.00 | 0.45 | 0.00 | 97 | 1014.5 |
| 20260506225046 | 46 | 0 | 0.0 | 0.0 | 0.00 | 0.46 | 0.00 | 96 | 1014.4 |
| 20260506224047 | 46 | 0 | 0.0 | 0.0 | 0.00 | 0.46 | 0.00 | 96 | 1014.3 |
| 20260506223046 | 46 | 0 | 0.0 | 0.0 | 0.00 | 0.48 | 0.00 | 96 | 1014.2 |
| 20260506222046 | 46 | 0 | 0.0 | 0.0 | 0.00 | 0.49 | 0.00 | 96 | 1014.1 |
| 20260506221048 | 46 | 0 | 0.0 | 0.0 | 0.00 | 0.50 | 0.00 | 95 | 1014.0 |
| 20260506220052 | 46 | 0 | 0.0 | 0.0 | 0.00 | 0.50 | 0.00 | 96 | 1014.0 |
| 20260506215050 | 46 | 0 | 0.0 | 0.0 | 0.00 | 0.51 | 0.50 | 96 | 1014.0 |
| 20260506214049 | 46 | 0 | 0.0 | 0.0 | 0.00 | 0.52 | 0.50 | 95 | 1013.9 |
| 20260506213048 | 46 | 0 | 0.0 | 0.0 | 0.00 | 0.53 | 0.50 | 95 | 1013.8 |
| 20260506212050 | 47 | 0 | 0.0 | 0.0 | 0.00 | 0.54 | 0.50 | 94 | 1013.7 |
| 20260506211050 | 47 | 0 | 0.0 | 0.0 | 0.00 | 0.55 | 0.50 | 93 | 1013.6 |
| 20260506210047 | 47 | 0 | 0.0 | 0.0 | 0.00 | 0.56 | 0.50 | 92 | 1013.4 |
| 20260506204047 | 48 | 0 | 0.0 | 0.0 | 0.00 | 0.58 | 0.50 | 90 | 1013.4 |
| 20260506203049 | 48 | 0 | 0.0 | 0.0 | 0.00 | 0.58 | 0.50 | 89 | 1013.3 |
| 20260506202048 | 48 | 0 | 0.0 | 0.0 | 0.00 | 0.59 | 0.50 | 89 | 1013.3 |
| 20260506201053 | 48 | 0 | 0.0 | 0.0 | 0.00 | 0.60 | 0.50 | 89 | 1013.2 |
| 20260506200051 | 48 | 0 | 0.0 | 0.0 | 0.00 | 0.61 | 0.50 | 89 | 1013.1 |
| 20260506194051 | 47 | 0 | 0.0 | 0.0 | 0.00 | 0.62 | 0.50 | 91 | 1013.0 |
| 20260506193050 | 47 | 0 | 0.0 | 0.0 | 0.00 | 0.64 | 0.50 | 91 | 1012.9 |
| 20260506192046 | 47 | 0 | 0.0 | 0.0 | 0.00 | 0.65 | 0.50 | 91 | 1012.8 |
| 20260506185050 | 49 | 0 | 0.0 | 0.0 | 0.00 | 0.67 | 0.50 | 86 | 1012.5 |
| 20260506183051 | 50 | 0 | 0.0 | 0.0 | 0.00 | 0.69 | 0.50 | 83 | 1012.3 |
| 20260506180047 | 51 | 0 | 0.0 | 0.0 | 0.00 | 0.71 | 0.50 | 82 | 1011.9 |
| 20260506175048 | 51 | 0 | 0.0 | 0.0 | 0.00 | 0.72 | 0.50 | 82 | 1011.7 |
| 20260506173044 | 52 | 0 | 0.0 | 0.0 | 0.00 | 0.72 | 0.50 | 81 | 1011.5 |
| 20260506172045 | 52 | 0 | 0.0 | 0.0 | 0.00 | 0.73 | 0.50 | 79 | 1011.4 |
| 20260506171046 | 53 | 0 | 0.0 | 0.0 | 0.00 | 0.73 | 0.50 | 78 | 1011.3 |
| 20260506170043 | 53 | 0 | 0.0 | 0.0 | 0.00 | 0.73 | 0.50 | 78 | 1011.3 |
| 20260506165043 | 53 | 0 | 0.0 | 0.0 | 0.00 | 0.74 | 0.50 | 78 | 1011.2 |
| 20260506163046 | 54 | 0 | 0.0 | 0.0 | 0.00 | 0.74 | 0.50 | 79 | 1011.0 |
| 20260506161045 | 53 | 0 | 0.0 | 0.0 | 0.00 | 0.74 | 0.50 | 83 | 1011.1 |
| 20260506160043 | 53 | 0 | 0.0 | 0.0 | 0.00 | 0.74 | 0.50 | 83 | 1011.1 |
| 20260506155047 | 53 | 0 | 0.0 | 0.0 | 0.00 | 0.74 | 0.50 | 84 | 1011.0 |
| 20260506154050 | 53 | 0 | 0.0 | 0.0 | 0.00 | 0.74 | 0.50 | 84 | 1010.9 |
| 20260506152049 | 54 | 0 | 0.0 | 0.0 | 0.00 | 0.74 | 0.50 | 82 | 1010.8 |
| 20260506151050 | 53 | 0 | 0.0 | 0.0 | 0.00 | 0.74 | 0.50 | 86 | 1010.8 |
| 20260506150048 | 53 | 0 | 0.0 | 0.0 | 0.00 | 0.74 | 0.50 | 87 | 1010.8 |
| 20260506145046 | 53 | 0 | 0.0 | 0.0 | 0.00 | 0.74 | 0.50 | 87 | 1010.8 |
| 20260506144044 | 53 | 0 | 0.0 | 0.0 | 0.00 | 0.74 | 0.50 | 83 | 1010.8 |
| 20260506141045 | 53 | 0 | 0.0 | 0.0 | 0.00 | 0.74 | 0.50 | 84 | 1010.8 |
| 20260506140054 | 53 | 0 | 0.0 | 0.0 | 0.00 | 0.74 | 0.50 | 82 | 1010.8 |
| 20260506135048 | 54 | 0 | 0.0 | 0.0 | 0.00 | 0.74 | 0.50 | 82 | 1010.7 |
| 20260506134048 | 53 | 0 | 0.0 | 0.0 | 0.00 | 0.74 | 0.50 | 84 | 1010.8 |
| 20260506132045 | 52 | 0 | 0.0 | 0.0 | 0.00 | 0.74 | 0.50 | 87 | 1010.9 |
| 20260506130043 | 51 | 0 | 0.0 | 0.0 | 0.00 | 0.74 | 0.50 | 88 | 1010.8 |
| 20260506125045 | 51 | 0 | 0.0 | 0.0 | 0.00 | 0.74 | 0.50 | 89 | 1010.8 |
| 20260506124045 | 51 | 0 | 0.0 | 0.0 | 0.00 | 0.74 | 0.50 | 88 | 1010.7 |
| 20260506123045 | 51 | 0 | 0.0 | 0.0 | 0.00 | 0.74 | 0.50 | 87 | 1010.6 |
| 20260506122045 | 52 | 0 | 0.0 | 0.0 | 0.00 | 0.74 | 0.50 | 87 | 1010.6 |
| 20260506121046 | 52 | 0 | 0.0 | 0.0 | 0.01 | 0.74 | 0.50 | 89 | 1010.6 |
| 20260506120046 | 51 | 0 | 0.0 | 0.0 | 0.01 | 0.74 | 0.50 | 90 | 1010.5 |
| 20260506114044 | 51 | 0 | 0.0 | 0.0 | 0.01 | 0.74 | 0.50 | 94 | 1010.5 |
| 20260506112048 | 50 | 0 | 0.0 | 0.0 | 0.01 | 0.74 | 0.50 | 96 | 1010.5 |
| 20260506111048 | 50 | 0 | 0.0 | 0.0 | 0.01 | 0.74 | 0.50 | 97 | 1010.6 |
| 20260506110047 | 50 | 0 | 0.0 | 0.0 | 0.00 | 0.73 | 0.50 | 98 | 1010.6 |
| 20260506105043 | 49 | 0 | 0.0 | 0.0 | 0.01 | 0.73 | 0.50 | 98 | 1010.5 |
| 20260506104044 | 49 | 0 | 0.0 | 0.0 | 0.01 | 0.73 | 0.50 | 98 | 1010.5 |
| 20260506103045 | 49 | 0 | 0.0 | 0.0 | 0.01 | 0.73 | 0.50 | 99 | 1010.5 |
| 20260506101044 | 49 | 0 | 0.0 | 0.0 | 0.01 | 0.73 | 0.50 | 99 | 1010.3 |
| 20260506100043 | 48 | 0 | 0.0 | 0.0 | 0.02 | 0.73 | 0.50 | 10 | 1010.2 |
| 20260506095044 | 48 | 0 | 0.0 | 0.0 | 0.02 | 0.73 | 0.50 | 10 | 1010.2 |
| 20260506093043 | 48 | 0 | 0.0 | 0.0 | 0.02 | 0.72 | 0.49 | 10 | 1010.0 |
| 20260506091044 | 47 | 0 | 0.0 | 0.0 | 0.03 | 0.72 | 0.49 | 10 | 1010.0 |
| 20260506090047 | 47 | 0 | 0.0 | 0.0 | 0.04 | 0.72 | 0.49 | 10 | 1009.9 |
| 20260506085047 | 47 | 0 | 0.0 | 0.0 | 0.03 | 0.72 | 0.48 | 10 | 1009.8 |
| 20260506084042 | 47 | 0 | 0.0 | 0.0 | 0.03 | 0.72 | 0.48 | 10 | 1009.7 |
| 20260506082044 | 47 | 0 | 0.0 | 0.0 | 0.02 | 0.71 | 0.46 | 10 | 1009.5 |
| 20260506081045 | 47 | 0 | 0.0 | 0.0 | 0.02 | 0.71 | 0.46 | 10 | 1009.5 |